owner,sensor,date,latitude,longitude,vertical_datum,wind_speed,wind_to_direction,wind_speed_of_gust,qcFlag 
ADCP,ioos:station:wmo:42364:1,2012-11-01T00:30:00Z,29.0600,-88.0900,122.0,2.4,275.0,99.0,'11111222,11111222,11144222' 
ADCP,ioos:station:wmo:42364:1,2012-11-01T01:30:00Z,29.0600,-88.0900,122.0,2.2,277.0,99.0,'11111222,11111222,11144222' 
ADCP,ioos:station:wmo:42364:1,2012-11-01T02:30:00Z,29.0600,-88.0900,122.0,2.5,270.0,99.0,'11111222,11111222,11144222' 
ADCP,ioos:station:wmo:42364:1,2012-11-01T03:30:00Z,29.0600,-88.0900,122.0,2.7,268.0,99.0,'11111222,11111222,11144222' 
ADCP,ioos:station:wmo:42364:1,2012-11-01T04:30:00Z,29.0600,-88.0900,122.0,3.1,270.0,99.0,'11111222,11111222,11144222' 
ADCP,ioos:station:wmo:42364:1,2012-11-01T05:30:00Z,29.0600,-88.0900,122.0,2.4,266.0,99.0,'11111222,11111222,11144222' 
ADCP,ioos:station:wmo:42364:1,2012-11-01T07:30:00Z,29.0600,-88.0900,122.0,2.9,267.0,99.0,'11111222,11111222,11144222' 
ADCP,ioos:station:wmo:42364:1,2012-11-01T08:30:00Z,29.0600,-88.0900,122.0,2.9,271.0,99.0,'11111222,11111222,11144222' 
ADCP,ioos:station:wmo:42364:1,2012-11-01T09:30:00Z,29.0600,-88.0900,122.0,3.3,270.0,99.0,'11111222,11111222,11144222' 
ADCP,ioos:station:wmo:42364:1,2012-11-01T10:30:00Z,29.0600,-88.0900,122.0,2.8,274.0,99.0,'11111222,11111222,11144222' 
ADCP,ioos:station:wmo:42364:1,2012-11-01T12:30:00Z,29.0600,-88.0900,122.0,5.1,298.0,99.0,'11111222,11111222,11144222' 
ADCP,ioos:station:wmo:42364:1,2012-11-01T13:30:00Z,29.0600,-88.0900,122.0,7.7,313.0,99.0,'11111222,11111222,11144222' 
ADCP,ioos:station:wmo:42364:1,2012-11-01T14:30:00Z,29.0600,-88.0900,122.0,6.0,319.0,99.0,'11111222,11111222,11144222' 
ADCP,ioos:station:wmo:42364:1,2012-11-01T15:30:00Z,29.0600,-88.0900,122.0,5.4,334.0,99.0,'11111222,11111222,11144222' 
ADCP,ioos:station:wmo:42364:1,2012-11-01T16:30:00Z,29.0600,-88.0900,122.0,5.8,340.0,99.0,'11111222,11111222,11144222' 
ADCP,ioos:station:wmo:42364:1,2012-11-01T17:30:00Z,29.0600,-88.0900,122.0,6.4,349.0,99.0,'11111222,11111222,11144222' 
ADCP,ioos:station:wmo:42364:1,2012-11-01T18:30:00Z,29.0600,-88.0900,122.0,5.7,2.0,99.0,'11111222,11111222,11144222' 
ADCP,ioos:station:wmo:42364:1,2012-11-01T19:30:00Z,29.0600,-88.0900,122.0,4.3,19.0,99.0,'11111222,11111222,11144222' 
ADCP,ioos:station:wmo:42364:1,2012-11-01T20:30:00Z,29.0600,-88.0900,122.0,3.5,21.0,99.0,'11111222,11111222,11144222' 
ADCP,ioos:station:wmo:42364:1,2012-11-01T21:30:00Z,29.0600,-88.0900,122.0,2.4,23.0,99.0,'11111222,11111222,11144222' 
ADCP,ioos:station:wmo:42364:1,2012-11-01T22:30:00Z,29.0600,-88.0900,122.0,0.1,3.0,99.0,'11111222,11111222,11144222' 
ADCP,ioos:station:wmo:42364:1,2012-11-01T23:30:00Z,29.0600,-88.0900,122.0,0.1,354.0,99.0,'11111222,11111222,11144222' 
ADCP,ioos:station:wmo:42364:1,2012-11-02T00:30:00Z,29.0600,-88.0900,122.0,1.5,274.0,99.0,'11111222,11111222,11144222' 
ADCP,ioos:station:wmo:42364:1,2012-11-02T01:30:00Z,29.0600,-88.0900,122.0,0.1,354.0,99.0,'11111222,11111222,11144222' 
ADCP,ioos:station:wmo:42364:1,2012-11-02T02:30:00Z,29.0600,-88.0900,122.0,1.0,337.0,99.0,'11111222,11111222,11144222' 
ADCP,ioos:station:wmo:42364:1,2012-11-02T03:30:00Z,29.0600,-88.0900,122.0,2.2,338.0,99.0,'11111222,11111222,11144222' 
ADCP,ioos:station:wmo:42364:1,2012-11-02T04:30:00Z,29.0600,-88.0900,122.0,0.3,343.0,99.0,'11111222,11111222,11144222' 
ADCP,ioos:station:wmo:42364:1,2012-11-02T05:30:00Z,29.0600,-88.0900,122.0,0.9,287.0,99.0,'11111222,11111222,11144222' 
ADCP,ioos:station:wmo:42364:1,2012-11-02T06:30:00Z,29.0600,-88.0900,122.0,1.6,231.0,99.0,'11111222,11111222,11144222' 
ADCP,ioos:station:wmo:42364:1,2012-11-02T07:30:00Z,29.0600,-88.0900,122.0,1.9,219.0,99.0,'11111222,11111222,11144222' 
ADCP,ioos:station:wmo:42364:1,2012-11-02T08:30:00Z,29.0600,-88.0900,122.0,2.1,226.0,99.0,'11111222,11111222,11144222' 
ADCP,ioos:station:wmo:42364:1,2012-11-02T09:30:00Z,29.0600,-88.0900,122.0,1.6,262.0,99.0,'11111222,11111222,11144222' 
ADCP,ioos:station:wmo:42364:1,2012-11-02T10:30:00Z,29.0600,-88.0900,122.0,1.2,270.0,99.0,'11111222,11111222,11144222' 
ADCP,ioos:station:wmo:42364:1,2012-11-02T11:30:00Z,29.0600,-88.0900,122.0,1.3,282.0,99.0,'11111222,11111222,11144222' 
ADCP,ioos:station:wmo:42364:1,2012-11-02T12:30:00Z,29.0600,-88.0900,122.0,1.1,305.0,99.0,'11111222,11111222,11144222' 
ADCP,ioos:station:wmo:42364:1,2012-11-02T13:30:00Z,29.0600,-88.0900,122.0,1.0,310.0,99.0,'11111222,11111222,11144222' 
ADCP,ioos:station:wmo:42364:1,2012-11-02T14:30:00Z,29.0600,-88.0900,122.0,0.7,323.0,99.0,'11111222,11111222,11144222' 
ADCP,ioos:station:wmo:42364:1,2012-11-02T15:30:00Z,29.0600,-88.0900,122.0,0.6,332.0,99.0,'11111222,11111222,11144222' 
ADCP,ioos:station:wmo:42364:1,2012-11-02T16:30:00Z,29.0600,-88.0900,122.0,0.7,332.0,99.0,'11111222,11111222,11144222' 
ADCP,ioos:station:wmo:42364:1,2012-11-02T17:30:00Z,29.0600,-88.0900,122.0,1.3,325.0,99.0,'11111222,11111222,11144222' 
ADCP,ioos:station:wmo:42364:1,2012-11-02T18:30:00Z,29.0600,-88.0900,122.0,1.0,327.0,99.0,'11111222,11111222,11144222' 
ADCP,ioos:station:wmo:42364:1,2012-11-02T19:30:00Z,29.0600,-88.0900,122.0,1.1,316.0,99.0,'11111222,11111222,11144222' 
ADCP,ioos:station:wmo:42364:1,2012-11-02T20:30:00Z,29.0600,-88.0900,122.0,0.3,347.0,99.0,'11111222,11111222,11144222' 
ADCP,ioos:station:wmo:42364:1,2012-11-02T21:30:00Z,29.0600,-88.0900,122.0,1.2,297.0,99.0,'11111222,11111222,11144222' 
ADCP,ioos:station:wmo:42364:1,2012-11-02T22:30:00Z,29.0600,-88.0900,122.0,0.6,328.0,99.0,'11111222,11111222,11144222' 
ADCP,ioos:station:wmo:42364:1,2012-11-02T23:30:00Z,29.0600,-88.0900,122.0,1.4,291.0,99.0,'11111222,11111222,11144222' 
ADCP,ioos:station:wmo:42364:1,2012-11-03T00:30:00Z,29.0600,-88.0900,122.0,1.6,291.0,99.0,'11111222,11111222,11144222' 
ADCP,ioos:station:wmo:42364:1,2012-11-03T01:30:00Z,29.0600,-88.0900,122.0,1.7,290.0,99.0,'11111222,11111222,11144222' 
ADCP,ioos:station:wmo:42364:1,2012-11-03T02:30:00Z,29.0600,-88.0900,122.0,1.6,287.0,99.0,'11111222,11111222,11144222' 
ADCP,ioos:station:wmo:42364:1,2012-11-03T03:30:00Z,29.0600,-88.0900,122.0,1.6,282.0,99.0,'11111222,11111222,11144222' 
ADCP,ioos:station:wmo:42364:1,2012-11-03T04:30:00Z,29.0600,-88.0900,122.0,1.4,287.0,99.0,'11111222,11111222,11144222' 
ADCP,ioos:station:wmo:42364:1,2012-11-03T05:30:00Z,29.0600,-88.0900,122.0,1.5,289.0,99.0,'11111222,11111222,11144222' 
ADCP,ioos:station:wmo:42364:1,2012-11-03T06:30:00Z,29.0600,-88.0900,122.0,1.6,289.0,99.0,'11111222,11111222,11144222' 
ADCP,ioos:station:wmo:42364:1,2012-11-03T07:30:00Z,29.0600,-88.0900,122.0,0.9,309.0,99.0,'11111222,11111222,11144222' 
ADCP,ioos:station:wmo:42364:1,2012-11-03T08:30:00Z,29.0600,-88.0900,122.0,0.3,342.0,99.0,'11111222,11111222,11144222' 
ADCP,ioos:station:wmo:42364:1,2012-11-03T09:30:00Z,29.0600,-88.0900,122.0,0.1,353.0,99.0,'11111222,11111222,11144222' 
ADCP,ioos:station:wmo:42364:1,2012-11-03T10:30:00Z,29.0600,-88.0900,122.0,0.4,344.0,99.0,'11111222,11111222,11144222' 
ADCP,ioos:station:wmo:42364:1,2012-11-03T11:30:00Z,29.0600,-88.0900,122.0,0.8,335.0,99.0,'11111222,11111222,11144222' 
ADCP,ioos:station:wmo:42364:1,2012-11-03T12:30:00Z,29.0600,-88.0900,122.0,3.0,310.0,99.0,'11111222,11111222,11144222' 
ADCP,ioos:station:wmo:42364:1,2012-11-03T13:30:00Z,29.0600,-88.0900,122.0,2.9,319.0,99.0,'11111222,11111222,11144222' 
ADCP,ioos:station:wmo:42364:1,2012-11-03T14:30:00Z,29.0600,-88.0900,122.0,2.5,322.0,99.0,'11111222,11111222,11144222' 
ADCP,ioos:station:wmo:42364:1,2012-11-03T15:30:00Z,29.0600,-88.0900,122.0,2.1,316.0,99.0,'11111222,11111222,11144222' 
ADCP,ioos:station:wmo:42364:1,2012-11-03T16:30:00Z,29.0600,-88.0900,122.0,2.0,309.0,99.0,'11111222,11111222,11144222' 
ADCP,ioos:station:wmo:42364:1,2012-11-03T17:30:00Z,29.0600,-88.0900,122.0,2.1,315.0,99.0,'11111222,11111222,11144222' 
ADCP,ioos:station:wmo:42364:1,2012-11-03T18:30:00Z,29.0600,-88.0900,122.0,2.0,323.0,99.0,'11111222,11111222,11144222' 
ADCP,ioos:station:wmo:42364:1,2012-11-03T19:30:00Z,29.0600,-88.0900,122.0,2.0,325.0,99.0,'11111222,11111222,11144222' 
ADCP,ioos:station:wmo:42364:1,2012-11-03T20:30:00Z,29.0600,-88.0900,122.0,2.0,319.0,99.0,'11111222,11111222,11144222' 
ADCP,ioos:station:wmo:42364:1,2012-11-03T21:30:00Z,29.0600,-88.0900,122.0,2.0,326.0,99.0,'11111222,11111222,11144222' 
ADCP,ioos:station:wmo:42364:1,2012-11-03T22:30:00Z,29.0600,-88.0900,122.0,1.4,332.0,99.0,'11111222,11111222,11144222' 
ADCP,ioos:station:wmo:42364:1,2012-11-03T23:30:00Z,29.0600,-88.0900,122.0,0.4,349.0,99.0,'11111222,11111222,11144222' 
ADCP,ioos:station:wmo:42364:1,2012-11-04T00:30:00Z,29.0600,-88.0900,122.0,0.2,346.0,99.0,'11111222,11111222,11144222' 
ADCP,ioos:station:wmo:42364:1,2012-11-04T01:30:00Z,29.0600,-88.0900,122.0,0.7,313.0,99.0,'11111222,11111222,11144222' 
ADCP,ioos:station:wmo:42364:1,2012-11-04T02:30:00Z,29.0600,-88.0900,122.0,1.5,278.0,99.0,'11111222,11111222,11144222' 
ADCP,ioos:station:wmo:42364:1,2012-11-04T03:30:00Z,29.0600,-88.0900,122.0,2.5,252.0,99.0,'11111222,11111222,11144222' 
ADCP,ioos:station:wmo:42364:1,2012-11-04T04:30:00Z,29.0600,-88.0900,122.0,2.7,256.0,99.0,'11111222,11111222,11144222' 
ADCP,ioos:station:wmo:42364:1,2012-11-04T05:30:00Z,29.0600,-88.0900,122.0,2.6,256.0,99.0,'11111222,11111222,11144222' 
ADCP,ioos:station:wmo:42364:1,2012-11-04T06:30:00Z,29.0600,-88.0900,122.0,3.0,253.0,99.0,'11111222,11111222,11144222' 
ADCP,ioos:station:wmo:42364:1,2012-11-04T07:30:00Z,29.0600,-88.0900,122.0,2.3,258.0,99.0,'11111222,11111222,11144222' 
ADCP,ioos:station:wmo:42364:1,2012-11-04T08:30:00Z,29.0600,-88.0900,122.0,1.0,306.0,99.0,'11111222,11111222,11144222' 
ADCP,ioos:station:wmo:42364:1,2012-11-04T09:30:00Z,29.0600,-88.0900,122.0,0.0,358.0,99.0,'11111222,11111222,11144222' 
ADCP,ioos:station:wmo:42364:1,2012-11-04T10:30:00Z,29.0600,-88.0900,122.0,0.0,0.0,99.0,'11111222,11111222,11144222' 
ADCP,ioos:station:wmo:42364:1,2012-11-04T11:30:00Z,29.0600,-88.0900,122.0,0.4,340.0,99.0,'11111222,11111222,11144222' 
ADCP,ioos:station:wmo:42364:1,2012-11-04T12:30:00Z,29.0600,-88.0900,122.0,0.4,338.0,99.0,'11111222,11111222,11144222' 
ADCP,ioos:station:wmo:42364:1,2012-11-04T13:30:00Z,29.0600,-88.0900,122.0,0.4,349.0,99.0,'11111222,11111222,11144222' 
ADCP,ioos:station:wmo:42364:1,2012-11-04T14:30:00Z,29.0600,-88.0900,122.0,1.6,316.0,99.0,'11111222,11111222,11144222' 
ADCP,ioos:station:wmo:42364:1,2012-11-04T15:30:00Z,29.0600,-88.0900,122.0,0.9,329.0,99.0,'11111222,11111222,11144222' 
ADCP,ioos:station:wmo:42364:1,2012-11-04T16:30:00Z,29.0600,-88.0900,122.0,1.7,317.0,99.0,'11111222,11111222,11144222' 
ADCP,ioos:station:wmo:42364:1,2012-11-04T17:30:00Z,29.0600,-88.0900,122.0,2.1,310.0,99.0,'11111222,11111222,11144222' 
ADCP,ioos:station:wmo:42364:1,2012-11-04T18:30:00Z,29.0600,-88.0900,122.0,3.6,326.0,99.0,'11111222,11111222,11144222' 
ADCP,ioos:station:wmo:42364:1,2012-11-04T19:30:00Z,29.0600,-88.0900,122.0,5.2,340.0,99.0,'11111222,11111222,11144222' 
ADCP,ioos:station:wmo:42364:1,2012-11-04T20:30:00Z,29.0600,-88.0900,122.0,4.4,340.0,99.0,'11111222,11111222,11144222' 
ADCP,ioos:station:wmo:42364:1,2012-11-04T21:30:00Z,29.0600,-88.0900,122.0,4.8,340.0,99.0,'11111222,11111222,11144222' 
ADCP,ioos:station:wmo:42364:1,2012-11-04T22:30:00Z,29.0600,-88.0900,122.0,5.9,340.0,99.0,'11111222,11111222,11144222' 
ADCP,ioos:station:wmo:42364:1,2012-11-04T23:30:00Z,29.0600,-88.0900,122.0,6.3,340.0,99.0,'11111222,11111222,11144222' 
ADCP,ioos:station:wmo:42364:1,2012-11-05T00:30:00Z,29.0600,-88.0900,122.0,4.2,335.0,99.0,'11111222,11111222,11144222' 
ADCP,ioos:station:wmo:42364:1,2012-11-05T01:30:00Z,29.0600,-88.0900,122.0,1.1,296.0,99.0,'11111222,11111222,11144222' 
ADCP,ioos:station:wmo:42364:1,2012-11-05T02:30:00Z,29.0600,-88.0900,122.0,2.2,236.0,99.0,'11111222,11111222,11144222' 
ADCP,ioos:station:wmo:42364:1,2012-11-05T03:30:00Z,29.0600,-88.0900,122.0,0.1,349.0,99.0,'11111222,11111222,11144222' 
ADCP,ioos:station:wmo:42364:1,2012-11-05T04:30:00Z,29.0600,-88.0900,122.0,0.9,340.0,99.0,'11111222,11111222,11144222' 
ADCP,ioos:station:wmo:42364:1,2012-11-05T05:30:00Z,29.0600,-88.0900,122.0,6.0,345.0,99.0,'11111222,11111222,11144222' 
ADCP,ioos:station:wmo:42364:1,2012-11-05T06:30:00Z,29.0600,-88.0900,122.0,9.1,359.0,99.0,'11111222,11111222,11144222' 
ADCP,ioos:station:wmo:42364:1,2012-11-05T07:30:00Z,29.0600,-88.0900,122.0,6.2,358.0,99.0,'11111222,11111222,11144222' 
ADCP,ioos:station:wmo:42364:1,2012-11-05T08:30:00Z,29.0600,-88.0900,122.0,5.8,356.0,99.0,'11111222,11111222,11144222' 
ADCP,ioos:station:wmo:42364:1,2012-11-05T09:30:00Z,29.0600,-88.0900,122.0,5.5,11.0,99.0,'11111222,11111222,11144222' 
ADCP,ioos:station:wmo:42364:1,2012-11-05T10:30:00Z,29.0600,-88.0900,122.0,4.7,17.0,99.0,'11111222,11111222,11144222' 
ADCP,ioos:station:wmo:42364:1,2012-11-05T11:30:00Z,29.0600,-88.0900,122.0,5.2,18.0,99.0,'11111222,11111222,11144222' 
ADCP,ioos:station:wmo:42364:1,2012-11-05T12:30:00Z,29.0600,-88.0900,122.0,5.2,25.0,99.0,'11111222,11111222,11144222' 
ADCP,ioos:station:wmo:42364:1,2012-11-05T13:30:00Z,29.0600,-88.0900,122.0,5.0,34.0,99.0,'11111222,11111222,11144222' 
ADCP,ioos:station:wmo:42364:1,2012-11-05T14:30:00Z,29.0600,-88.0900,122.0,4.3,41.0,99.0,'11111222,11111222,11144222' 
ADCP,ioos:station:wmo:42364:1,2012-11-05T15:30:00Z,29.0600,-88.0900,122.0,3.2,54.0,99.0,'11111222,11111222,11144222' 
ADCP,ioos:station:wmo:42364:1,2012-11-05T16:30:00Z,29.0600,-88.0900,122.0,2.6,82.0,99.0,'11111222,11111222,11144222' 
ADCP,ioos:station:wmo:42364:1,2012-11-05T17:30:00Z,29.0600,-88.0900,122.0,2.2,79.0,99.0,'11111222,11111222,11144222' 
ADCP,ioos:station:wmo:42364:1,2012-11-05T18:30:00Z,29.0600,-88.0900,122.0,1.3,60.0,99.0,'11111222,11111222,11144222' 
ADCP,ioos:station:wmo:42364:1,2012-11-05T19:30:00Z,29.0600,-88.0900,122.0,1.6,116.0,99.0,'11111222,11111222,11144222' 
ADCP,ioos:station:wmo:42364:1,2012-11-05T20:30:00Z,29.0600,-88.0900,122.0,2.7,164.0,99.0,'11111222,11111222,11144222' 
ADCP,ioos:station:wmo:42364:1,2012-11-05T21:30:00Z,29.0600,-88.0900,122.0,1.6,154.0,99.0,'11111222,11111222,11144222' 
ADCP,ioos:station:wmo:42364:1,2012-11-05T22:30:00Z,29.0600,-88.0900,122.0,1.0,121.0,99.0,'11111222,11111222,11144222' 
ADCP,ioos:station:wmo:42364:1,2012-11-05T23:30:00Z,29.0600,-88.0900,122.0,0.2,341.0,99.0,'11111222,11111222,11144222' 
ADCP,ioos:station:wmo:42364:1,2012-11-06T00:30:00Z,29.0600,-88.0900,122.0,0.0,0.0,99.0,'11111222,11111222,11144222' 
ADCP,ioos:station:wmo:42364:1,2012-11-06T01:30:00Z,29.0600,-88.0900,122.0,0.6,53.0,99.0,'11111222,11111222,11144222' 
ADCP,ioos:station:wmo:42364:1,2012-11-06T02:30:00Z,29.0600,-88.0900,122.0,2.3,180.0,99.0,'11111222,11111222,11144222' 
ADCP,ioos:station:wmo:42364:1,2012-11-06T03:30:00Z,29.0600,-88.0900,122.0,3.5,194.0,99.0,'11111222,11111222,11144222' 
ADCP,ioos:station:wmo:42364:1,2012-11-06T04:30:00Z,29.0600,-88.0900,122.0,6.4,224.0,99.0,'11111222,11111222,11144222' 
ADCP,ioos:station:wmo:42364:1,2012-11-06T05:30:00Z,29.0600,-88.0900,122.0,5.7,269.0,99.0,'11111222,11111222,11144222' 
ADCP,ioos:station:wmo:42364:1,2012-11-06T06:30:00Z,29.0600,-88.0900,122.0,9.7,314.0,99.0,'11111222,11111222,11144222' 
ADCP,ioos:station:wmo:42364:1,2012-11-06T07:30:00Z,29.0600,-88.0900,122.0,2.5,282.0,99.0,'11111222,11111222,11144222' 
ADCP,ioos:station:wmo:42364:1,2012-11-06T08:30:00Z,29.0600,-88.0900,122.0,3.6,291.0,99.0,'11111222,11111222,11144222' 
ADCP,ioos:station:wmo:42364:1,2012-11-06T09:30:00Z,29.0600,-88.0900,122.0,6.7,308.0,99.0,'11111222,11111222,11144222' 
ADCP,ioos:station:wmo:42364:1,2012-11-06T10:30:00Z,29.0600,-88.0900,122.0,9.5,333.0,99.0,'11111222,11111222,11144222' 
ADCP,ioos:station:wmo:42364:1,2012-11-06T11:30:00Z,29.0600,-88.0900,122.0,12.2,340.0,99.0,'11111222,11111222,11144222' 
ADCP,ioos:station:wmo:42364:1,2012-11-06T12:30:00Z,29.0600,-88.0900,122.0,11.5,343.0,99.0,'11111222,11111222,11144222' 
ADCP,ioos:station:wmo:42364:1,2012-11-06T13:30:00Z,29.0600,-88.0900,122.0,11.1,346.0,99.0,'11111222,11111222,11144222' 
ADCP,ioos:station:wmo:42364:1,2012-11-06T14:30:00Z,29.0600,-88.0900,122.0,23.3,125.0,99.0,'11111222,11111222,11144222' 
ADCP,ioos:station:wmo:42364:1,2012-11-06T15:30:00Z,29.0600,-88.0900,122.0,99.0,11.0,99.0,'11144222,11111222,11144222' 
ADCP,ioos:station:wmo:42364:1,2012-11-06T16:30:00Z,29.0600,-88.0900,122.0,12.9,54.0,99.0,'11111222,11111222,11144222' 
ADCP,ioos:station:wmo:42364:1,2012-11-06T17:30:00Z,29.0600,-88.0900,122.0,8.7,347.0,99.0,'11111222,11111222,11144222' 
ADCP,ioos:station:wmo:42364:1,2012-11-06T18:30:00Z,29.0600,-88.0900,122.0,8.3,343.0,99.0,'11111222,11111222,11144222' 
ADCP,ioos:station:wmo:42364:1,2012-11-06T19:30:00Z,29.0600,-88.0900,122.0,5.9,337.0,99.0,'11111222,11111222,11144222' 
ADCP,ioos:station:wmo:42364:1,2012-11-06T20:30:00Z,29.0600,-88.0900,122.0,4.9,330.0,99.0,'11111222,11111222,11144222' 
ADCP,ioos:station:wmo:42364:1,2012-11-06T21:30:00Z,29.0600,-88.0900,122.0,6.3,329.0,99.0,'11111222,11111222,11144222' 
ADCP,ioos:station:wmo:42364:1,2012-11-06T22:30:00Z,29.0600,-88.0900,122.0,6.7,331.0,99.0,'11111222,11111222,11144222' 
ADCP,ioos:station:wmo:42364:1,2012-11-06T23:30:00Z,29.0600,-88.0900,122.0,6.5,326.0,99.0,'11111222,11111222,11144222' 
ADCP,ioos:station:wmo:42364:1,2012-11-07T00:30:00Z,29.0600,-88.0900,122.0,6.8,318.0,99.0,'11111222,11111222,11144222' 
ADCP,ioos:station:wmo:42364:1,2012-11-07T01:30:00Z,29.0600,-88.0900,122.0,6.5,326.0,99.0,'11111222,11111222,11144222' 
ADCP,ioos:station:wmo:42364:1,2012-11-07T02:30:00Z,29.0600,-88.0900,122.0,6.9,328.0,99.0,'11111222,11111222,11144222' 
ADCP,ioos:station:wmo:42364:1,2012-11-07T03:30:00Z,29.0600,-88.0900,122.0,7.7,338.0,99.0,'11111222,11111222,11144222' 
ADCP,ioos:station:wmo:42364:1,2012-11-07T04:30:00Z,29.0600,-88.0900,122.0,8.6,338.0,99.0,'11111222,11111222,11144222' 
ADCP,ioos:station:wmo:42364:1,2012-11-07T05:30:00Z,29.0600,-88.0900,122.0,10.1,341.0,99.0,'11111222,11111222,11144222' 
ADCP,ioos:station:wmo:42364:1,2012-11-07T06:30:00Z,29.0600,-88.0900,122.0,8.7,336.0,99.0,'11111222,11111222,11144222' 
ADCP,ioos:station:wmo:42364:1,2012-11-07T07:30:00Z,29.0600,-88.0900,122.0,9.4,341.0,99.0,'11111222,11111222,11144222' 
ADCP,ioos:station:wmo:42364:1,2012-11-07T08:30:00Z,29.0600,-88.0900,122.0,10.2,340.0,99.0,'11111222,11111222,11144222' 
ADCP,ioos:station:wmo:42364:1,2012-11-07T09:30:00Z,29.0600,-88.0900,122.0,10.1,338.0,99.0,'11111222,11111222,11144222' 
ADCP,ioos:station:wmo:42364:1,2012-11-07T10:30:00Z,29.0600,-88.0900,122.0,10.4,339.0,99.0,'11111222,11111222,11144222' 
ADCP,ioos:station:wmo:42364:1,2012-11-07T11:30:00Z,29.0600,-88.0900,122.0,10.2,341.0,99.0,'11111222,11111222,11144222' 
ADCP,ioos:station:wmo:42364:1,2012-11-07T12:30:00Z,29.0600,-88.0900,122.0,11.0,343.0,99.0,'11111222,11111222,11144222' 
ADCP,ioos:station:wmo:42364:1,2012-11-07T13:30:00Z,29.0600,-88.0900,122.0,10.2,342.0,99.0,'11111222,11111222,11144222' 
ADCP,ioos:station:wmo:42364:1,2012-11-07T14:30:00Z,29.0600,-88.0900,122.0,8.4,338.0,99.0,'11111222,11111222,11144222' 
ADCP,ioos:station:wmo:42364:1,2012-11-07T15:30:00Z,29.0600,-88.0900,122.0,5.8,327.0,99.0,'11111222,11111222,11144222' 
ADCP,ioos:station:wmo:42364:1,2012-11-07T16:30:00Z,29.0600,-88.0900,122.0,6.4,319.0,99.0,'11111222,11111222,11144222' 
ADCP,ioos:station:wmo:42364:1,2012-11-07T17:30:00Z,29.0600,-88.0900,122.0,5.6,311.0,99.0,'11111222,11111222,11144222' 
ADCP,ioos:station:wmo:42364:1,2012-11-07T18:30:00Z,29.0600,-88.0900,122.0,6.4,309.0,99.0,'11111222,11111222,11144222' 
ADCP,ioos:station:wmo:42364:1,2012-11-07T19:30:00Z,29.0600,-88.0900,122.0,6.9,311.0,99.0,'11111222,11111222,11144222' 
ADCP,ioos:station:wmo:42364:1,2012-11-07T21:30:00Z,29.0600,-88.0900,122.0,3.1,197.0,99.0,'11111222,11111222,11144222' 
ADCP,ioos:station:wmo:42364:1,2012-11-07T22:30:00Z,29.0600,-88.0900,122.0,3.1,197.0,99.0,'11111222,11111222,11144222' 
ADCP,ioos:station:wmo:42364:1,2012-11-07T23:30:00Z,29.0600,-88.0900,122.0,3.1,197.0,99.0,'11111222,11111222,11144222' 
ADCP,ioos:station:wmo:42364:1,2012-11-08T00:30:00Z,29.0600,-88.0900,122.0,99.0,-9999.0,99.0,'11144222,99999999,11144222' 
ADCP,ioos:station:wmo:42364:1,2012-11-08T01:30:00Z,29.0600,-88.0900,122.0,99.0,-9999.0,99.0,'11144222,99999999,11144222' 
ADCP,ioos:station:wmo:42364:1,2012-11-08T02:30:00Z,29.0600,-88.0900,122.0,99.0,-9999.0,99.0,'11144222,99999999,11144222' 
ADCP,ioos:station:wmo:42364:1,2012-11-08T03:30:00Z,29.0600,-88.0900,122.0,99.0,-9999.0,99.0,'11144222,99999999,11144222' 
ADCP,ioos:station:wmo:42364:1,2012-11-08T04:30:00Z,29.0600,-88.0900,122.0,99.0,-9999.0,99.0,'11144222,99999999,11144222' 
ADCP,ioos:station:wmo:42364:1,2012-11-08T05:30:00Z,29.0600,-88.0900,122.0,99.0,-9999.0,99.0,'11144222,99999999,11144222' 
ADCP,ioos:station:wmo:42364:1,2012-11-08T06:30:00Z,29.0600,-88.0900,122.0,99.0,-9999.0,99.0,'11144222,99999999,11144222' 
ADCP,ioos:station:wmo:42364:1,2012-11-08T07:30:00Z,29.0600,-88.0900,122.0,99.0,-9999.0,99.0,'11144222,99999999,11144222' 
ADCP,ioos:station:wmo:42364:1,2012-11-08T08:30:00Z,29.0600,-88.0900,122.0,99.0,-9999.0,99.0,'11144222,99999999,11144222' 
ADCP,ioos:station:wmo:42364:1,2012-11-08T09:30:00Z,29.0600,-88.0900,122.0,99.0,-9999.0,99.0,'11144222,99999999,11144222' 
ADCP,ioos:station:wmo:42364:1,2012-11-08T11:30:00Z,29.0600,-88.0900,122.0,99.0,-9999.0,99.0,'11144222,99999999,11144222' 
ADCP,ioos:station:wmo:42364:1,2012-11-08T12:30:00Z,29.0600,-88.0900,122.0,99.0,-9999.0,99.0,'11144222,99999999,11144222' 
ADCP,ioos:station:wmo:42364:1,2012-11-08T13:30:00Z,29.0600,-88.0900,122.0,99.0,-9999.0,99.0,'11144222,99999999,11144222' 
ADCP,ioos:station:wmo:42364:1,2012-11-08T14:30:00Z,29.0600,-88.0900,122.0,99.0,-9999.0,99.0,'11144222,99999999,11144222' 
ADCP,ioos:station:wmo:42364:1,2012-11-08T15:30:00Z,29.0600,-88.0900,122.0,99.0,-9999.0,99.0,'11144222,99999999,11144222' 
ADCP,ioos:station:wmo:42364:1,2012-11-08T16:30:00Z,29.0600,-88.0900,122.0,99.0,-9999.0,99.0,'11144222,99999999,11144222' 
ADCP,ioos:station:wmo:42364:1,2012-11-08T17:30:00Z,29.0600,-88.0900,122.0,99.0,-9999.0,99.0,'11144222,99999999,11144222' 
ADCP,ioos:station:wmo:42364:1,2012-11-08T18:30:00Z,29.0600,-88.0900,122.0,99.0,-9999.0,99.0,'11144222,99999999,11144222' 
ADCP,ioos:station:wmo:42364:1,2012-11-08T19:30:00Z,29.0600,-88.0900,122.0,99.0,187.0,99.0,'11144222,11111222,11144222' 
ADCP,ioos:station:wmo:42364:1,2012-11-08T20:30:00Z,29.0600,-88.0900,122.0,99.0,180.0,99.0,'11144222,11111222,11144222' 
ADCP,ioos:station:wmo:42364:1,2012-11-08T21:30:00Z,29.0600,-88.0900,122.0,99.0,111.0,99.0,'11144222,11111222,11144222' 
ADCP,ioos:station:wmo:42364:1,2012-11-08T22:30:00Z,29.0600,-88.0900,122.0,99.0,101.0,99.0,'11144222,11111222,11144222' 
ADCP,ioos:station:wmo:42364:1,2012-11-08T23:30:00Z,29.0600,-88.0900,122.0,99.0,353.0,99.0,'11144222,11111222,11144222' 
ADCP,ioos:station:wmo:42364:1,2012-11-09T00:30:00Z,29.0600,-88.0900,122.0,99.0,120.0,99.0,'11144222,11111222,11144222' 
ADCP,ioos:station:wmo:42364:1,2012-11-09T01:30:00Z,29.0600,-88.0900,122.0,99.0,-9999.0,99.0,'11144222,99999999,11144222' 
ADCP,ioos:station:wmo:42364:1,2012-11-09T02:30:00Z,29.0600,-88.0900,122.0,99.0,-9999.0,99.0,'11144222,99999999,11144222' 
ADCP,ioos:station:wmo:42364:1,2012-11-09T03:30:00Z,29.0600,-88.0900,122.0,99.0,-9999.0,99.0,'11144222,99999999,11144222' 
ADCP,ioos:station:wmo:42364:1,2012-11-09T04:30:00Z,29.0600,-88.0900,122.0,99.0,-9999.0,99.0,'11144222,99999999,11144222' 
ADCP,ioos:station:wmo:42364:1,2012-11-09T05:30:00Z,29.0600,-88.0900,122.0,99.0,121.0,99.0,'11144222,11111222,11144222' 
ADCP,ioos:station:wmo:42364:1,2012-11-09T06:30:00Z,29.0600,-88.0900,122.0,99.0,-9999.0,99.0,'11144222,99999999,11144222' 
ADCP,ioos:station:wmo:42364:1,2012-11-09T07:30:00Z,29.0600,-88.0900,122.0,99.0,133.0,99.0,'11144222,11111222,11144222' 
ADCP,ioos:station:wmo:42364:1,2012-11-09T08:30:00Z,29.0600,-88.0900,122.0,99.0,166.0,99.0,'11144222,11111222,11144222' 
ADCP,ioos:station:wmo:42364:1,2012-11-09T09:30:00Z,29.0600,-88.0900,122.0,99.0,-9999.0,99.0,'11144222,99999999,11144222' 
ADCP,ioos:station:wmo:42364:1,2012-11-09T10:30:00Z,29.0600,-88.0900,122.0,99.0,-9999.0,99.0,'11144222,99999999,11144222' 
ADCP,ioos:station:wmo:42364:1,2012-11-09T11:30:00Z,29.0600,-88.0900,122.0,99.0,194.0,99.0,'11144222,11111222,11144222' 